Weather in Fatnevo

Russia / Oryol Oblast     53°28′17″N   36°14′05″E
temp.,
°C
wind,
m/s
gust,
m/s
humid.,
%
clouds,
%
prec.,
mm/h
press.,
hPa
HPBL,
m
15 may, sat
sat1500:00+14sse239437 1.6 100841
03:00+13sse2294100 1.6 100814
06:00+14s24950 0.0 100878
09:00+18ssw5883100 0.4 1009457
12:00+20ssw67615 0.3 10101387
15:00+20ssw796441 0.8 10091595
18:00+17ssw611815 1.9 1009769
21:00+14ssw4129292 4.2 1011352
16 may, sun
sun1600:00+12ssw38954 0.0 1011166
03:00+11ssw37950 0.0 1013144
06:00+11ssw37935 0.0 1013178
09:00+16ssw468062 0.0 1014396
12:00+20ssw58650 0.9 10141404
15:00+21sw57581 1.0 10141725
18:00+20sw3570100 0.0 1013311
21:00+15sse117912 0.0 101411
17 may, mon
mon1700:00+14e228566 0.0 101412
03:00+13ene349255 0.0 101456
06:00+13ene4119095 0.0 1013254
09:00+19e610783 0.0 1012506
12:00+23ese710635 0.0 1010804
15:00+25ese71262100 0.0 10091284
18:00+22ese6136896 0.0 1008550
21:00+18ese61579100 0.0 1008377
18 may, tue
tue1800:00+17se514825 0.0 1007356
03:00+15ese51189100 0.0 1006239
06:00+15se5119091 0.0 1006250
09:00+20se6117899 0.0 1006625
12:00+22sse8116794 0.0 10061285
15:00+22sse71168100 0.1 10051519
18:00+17s4118469 1.7 1005390
21:00+15sse5139277 1.7 1004419
19 may, wed
wed1900:00+14sse51393100 0.1 1004437
03:00+13sse5119591 0.1 1004456
06:00+14ssw599383 0.6 1005554
09:00+13ssw6985100 0.6 1007645
12:00+16ssw796461 0.1 10081645
15:00+16ssw710710 0.5 10081381
18:00+15s712765 0.8 10071124
21:00+12ssw612880 1.1 1008573